GW0416 Weather Reports


Display with metric or nautical units.
time (UTC)temp
F
wind
direction
speed
MPH
gust
MPH
rain 1hr
in
rain 24hr
in
rain mn
in
humidity
%
barometer
mb
20221003233012 66 0 0.0 4.0 0.00 0.00 0.00 58 1021.8
20221003231518 65 169 0.0 8.0 0.00 0.00 0.00 60 1021.7
20221003230012 66 217 4.0 6.0 0.00 0.00 0.00 59 1021.7
20221003224513 66 153 4.0 7.0 0.00 0.00 0.00 59 1021.9
20221003223011 65 154 1.0 7.0 0.00 0.00 0.00 60 1021.8
20221003221511 64 190 6.0 10.0 0.00 0.00 0.00 62 1021.9
20221003220011 65 216 2.0 7.0 0.00 0.00 0.00 61 1022.0
20221003214511 64 188 4.0 10.0 0.00 0.00 0.00 63 1022.0
20221003213011 64 177 5.0 12.0 0.00 0.00 0.00 64 1022.1
20221003211511 63 236 6.0 11.0 0.00 0.00 0.00 64 1022.2
20221003210012 63 256 2.0 7.0 0.00 0.00 0.00 65 1022.3
20221003204516 62 260 4.0 9.0 0.00 0.00 0.00 67 1022.4
20221003203011 62 244 2.0 8.0 0.00 0.00 0.00 66 1022.6
20221003201511 61 208 4.0 9.0 0.00 0.00 0.00 67 1022.8
20221003200022 62 220 8.0 12.0 0.00 0.00 0.00 66 1022.8
20221003194511 61 244 7.0 12.0 0.00 0.00 0.00 67 1022.8
20221003193032 60 308 6.0 8.0 0.00 0.00 0.00 68 1022.8
20221003191517 61 211 6.0 10.0 0.00 0.00 0.00 66 1022.8
20221003190013 60 205 5.0 10.0 0.00 0.00 0.00 67 1023.0
20221003184512 60 182 5.0 9.0 0.00 0.00 0.00 68 1022.9
20221003183027 59 0 1.0 6.0 0.00 0.00 0.00 68 1023.0
20221003181521 60 0 4.0 9.0 0.00 0.00 0.00 69 1023.1
20221003180022 58 217 5.0 12.0 0.00 0.00 0.00 71 1023.1
20221003174517 58 237 6.0 9.0 0.00 0.00 0.00 70 1023.2
20221003173011 59 171 5.0 9.0 0.00 0.00 0.00 71 1023.4
20221003171518 59 0 0.0 4.0 0.00 0.00 0.00 64 1023.4
20221003170017 58 198 1.0 4.0 0.00 0.00 0.00 66 1023.3
20221003164512 58 250 2.0 4.0 0.00 0.00 0.00 70 1023.2
20221003163012 58 229 3.0 5.0 0.00 0.00 0.00 71 1023.2
20221003161513 58 284 0.0 2.0 0.00 0.00 0.00 72 1023.2
20221003160016 57 0 0.0 4.0 0.00 0.00 0.00 80 1023.1
20221003154510 56 0 0.0 2.0 0.00 0.00 0.00 83 1023.0
20221003153010 55 286 1.0 3.0 0.00 0.00 0.00 83 1023.1
20221003151521 54 286 0.0 3.0 0.00 0.00 0.00 87 1022.9
20221003150012 54 271 1.0 3.0 0.00 0.00 0.00 89 1022.8
20221003144513 53 270 1.0 3.0 0.00 0.00 0.00 90 1022.4
20221003143020 51 261 2.0 4.0 0.00 0.00 0.00 92 1022.3
20221003141511 50 259 2.0 6.0 0.00 0.00 0.00 93 1022.1
20221003140010 50 281 3.0 5.0 0.00 0.00 0.00 94 1022.1
20221003134523 50 263 3.0 6.0 0.00 0.00 0.00 94 1022.0
20221003133015 50 277 2.0 6.0 0.00 0.00 0.00 94 1022.0
20221003131511 50 292 3.0 4.0 0.00 0.00 0.00 94 1021.8
20221003130013 51 281 2.0 4.0 0.00 0.00 0.00 94 1021.8
20221003124510 51 275 3.0 6.0 0.00 0.00 0.00 94 1021.7
20221003123009 51 286 2.0 4.0 0.00 0.00 0.00 93 1021.6
20221003121510 51 306 3.0 6.0 0.00 0.00 0.00 92 1021.6
20221003120017 52 298 2.0 4.0 0.00 0.00 0.00 91 1021.5
20221003114515 52 258 1.0 3.0 0.00 0.00 0.00 92 1021.5
20221003113010 52 0 0.0 2.0 0.00 0.00 0.00 93 1021.3
20221003111511 51 0 0.0 4.0 0.00 0.00 0.00 93 1021.0
20221003110015 51 0 0.0 0.0 0.00 0.00 0.00 93 1021.0
20221003104511 52 0 0.0 0.0 0.00 0.00 0.00 93 1020.9
20221003103010 51 0 0.0 0.0 0.00 0.00 0.00 93 1020.8
20221003101511 51 0 0.0 0.0 0.00 0.00 0.00 94 1020.8
20221003100011 51 0 0.0 0.0 0.00 0.00 0.00 94 1020.6
20221003094514 51 0 0.0 0.0 0.00 0.01 0.00 94 1020.6
20221003093012 52 0 0.0 0.0 0.00 0.01 0.00 93 1020.8
20221003091511 52 0 0.0 0.0 0.00 0.01 0.00 92 1020.6
20221003090011 52 0 0.0 0.0 0.00 0.01 0.00 92 1020.6
20221003084511 52 0 0.0 0.0 0.00 0.01 0.00 92 1020.5
20221003083011 51 0 0.0 0.0 0.00 0.01 0.00 93 1020.3
20221003081511 51 0 0.0 0.0 0.00 0.01 0.00 94 1020.4
20221003080011 51 0 0.0 0.0 0.00 0.01 0.00 94 1020.3
20221003074516 51 0 0.0 0.0 0.00 0.01 0.00 94 1020.2
20221003073013 51 0 0.0 0.0 0.00 0.01 0.00 94 1020.2
20221003071512 51 0 0.0 0.0 0.00 0.01 0.00 94 1020.2
20221003070037 51 0 0.0 0.0 0.00 0.01 0.00 93 1020.3
20221003064512 51 313 1.0 3.0 0.00 0.01 0.00 93 1020.2
20221003063012 51 313 1.0 3.0 0.00 0.01 0.00 93 1020.3
20221003061513 52 318 2.0 4.0 0.00 0.01 0.00 92 1020.2
20221003060013 52 326 1.0 3.0 0.00 0.01 0.00 92 1020.2
20221003054527 52 0 0.0 0.0 0.00 0.02 0.01 91 1020.2
20221003053016 52 0 0.0 0.0 0.00 0.02 0.01 92 1020.3
20221003051520 52 0 0.0 0.0 0.00 0.02 0.01 92 1020.2
20221003050016 52 0 0.0 0.0 0.00 0.02 0.01 91 1020.2
20221003044512 52 0 0.0 0.0 0.00 0.02 0.01 92 1020.1
20221003043015 52 0 0.0 3.0 0.00 0.02 0.01 91 1019.9
20221003041515 52 326 3.0 4.0 0.00 0.02 0.01 91 1019.9
20221003040013 52 40 1.0 3.0 0.00 0.02 0.01 91 1019.8
20221003034511 52 0 0.0 0.0 0.00 0.04 0.01 90 1019.8
20221003033011 52 80 0.0 2.0 0.00 0.04 0.01 90 1019.9
20221003031511 52 0 0.0 5.0 0.00 0.04 0.01 90 1019.8
20221003030011 52 0 0.0 3.0 0.00 0.04 0.01 89 1019.8
20221003024512 53 136 1.0 2.0 0.00 0.05 0.01 89 1019.9
20221003021511 53 136 2.0 4.0 0.00 0.05 0.01 88 1019.8
20221003020011 53 136 4.0 5.0 0.00 0.05 0.01 87 1019.6
20221003014511 54 136 3.0 4.0 0.00 0.08 0.01 86 1019.4
20221003013013 54 136 1.0 3.0 0.00 0.08 0.01 85 1019.4
20221003011515 54 136 2.0 3.0 0.00 0.08 0.01 85 1019.4
20221003010012 55 138 1.0 3.0 0.00 0.08 0.01 84 1019.4
20221003004511 55 0 0.0 2.0 0.00 0.08 0.01 83 1019.4
20221003003011 55 0 0.0 2.0 0.00 0.08 0.01 83 1019.4
20221003001511 55 0 0.0 1.0 0.00 0.08 0.01 82 1019.2
20221003000011 55 0 0.0 1.0 0.00 0.08 0.01 82 1019.2
20221002234535 55 157 1.0 3.0 0.00 0.08 0.01 82 1019.1